Terug naar catalogus

STARLINK-5709

ActiefCommunicatieVLEO
NORAD 55621·PAYLOAD·🇺🇸 United States

Gelanceerd Feb 12, 2023 vanaf Cape Canaveral Space Force Station

Loading…

Volgende Passages (komende 24 uur)

TLE

VersSource: CelesTrak SupGP

Epoch: Sep 15, 2026, 02:46 UTC

1 55621C 23020BE  26258.11576389 -.00000207  00000+0 -74921-5 0  2585
2 55621  43.0020   4.2204 0001460 261.0847  50.8928 15.27572593    10

Volg STARLINK-5709 in realtime met AllMySat

Download on the App Store